Orbital elements: 2009 EW Earth MOID = 0.0022 AU Epoch 2008 Nov. 30.0 TT = JDT 2454800.5 MPC M 252.67557 (2000.0) P Q n 0.70796763 Peri. 259.41335 -0.41191552 +0.91015297 a 1.2467914 Node 346.01015 -0.74829194 -0.36550063 e 0.3885311 Incl. 10.51721 -0.51998536 -0.19501502 P 1.39 H 26.3 G 0.15 U 7